Torna al catalogo

ATLAS 5 CENTAUR DEB

AttivoHEO
NORAD 44674·DEBRIS·🇺🇸 United States

Lanciato Oct 17, 2018 da Cape Canaveral Space Force Station

Loading…

Prossimi Passaggi (prossime 24 ore)

TLE

In scadenzaSource: Space-Track

Epoca: Aug 29, 2026, 14:35 UTC

1 44674U 18079AL  26241.60814329 -.00000112  00000-0  00000-0 0  9993
2 44674  13.1559  28.6768 4356901 350.7195   3.1785  1.93746291 50962

Traccia ATLAS 5 CENTAUR DEB in tempo reale con AllMySat

Download on the App Store